This is the latest recevied weather packets stored in our database for station/object IZ3LSV-13. If no packets are shown the sender has not sent any weather packets the latest 10 day(s).
| Time | Temp. | Humidity | Pressure | Rain* | Wind** | Luminosity | Snow |
|---|---|---|---|---|---|---|---|
| 1777788565 | 24.44° C | - | 1115.2 hPa | 0 mm | - | - | - |
| 1777788260 | 25.56° C | - | 1115 hPa | 0 mm | - | - | - |
| 1777787954 | 26.11° C | - | 1115.1 hPa | 0 mm | - | - | - |
| 1777787649 | 27.22° C | - | 1115 hPa | 0 mm | - | - | - |
| 1777787343 | 27.78° C | - | 1115 hPa | 0 mm | - | - | - |
| 1777787038 | 27.78° C | - | 1115 hPa | 0 mm | - | - | - |
| 1777786732 | 27.22° C | - | 1115.1 hPa | 0 mm | - | - | - |
| 1777786426 | 27.22° C | - | 1115 hPa | 0 mm | - | - | - |
| 1777786121 | 26.67° C | - | 1114.9 hPa | 0 mm | - | - | - |
| 1777785815 | 26.11° C | - | 1114.9 hPa | 0 mm | - | - | - |
| 1777785510 | 26.11° C | - | 1115 hPa | 0 mm | - | - | - |
| 1777785205 | 25.56° C | - | 1114.9 hPa | 0 mm | - | - | - |
| 1777784899 | 25.56° C | - | 1115 hPa | 0 mm | - | - | - |
| 1777784594 | 24.44° C | - | 1115 hPa | 0 mm | - | - | - |
| 1777784288 | 23.33° C | - | 1115 hPa | 0 mm | - | - | - |
| 1777783983 | 22.22° C | - | 1115 hPa | 0 mm | - | - | - |
| 1777783677 | 20.56° C | - | 1115 hPa | 0 mm | - | - | - |
| 1777783372 | 19.44° C | - | 1115.1 hPa | 0 mm | - | - | - |
| 1777783067 | 17.78° C | - | 1115.1 hPa | 0 mm | - | - | - |
| 1777782761 | 17.22° C | - | 1115.1 hPa | 0 mm | - | - | - |
| 1777782456 | 16.67° C | - | 1115.2 hPa | 0 mm | - | - | - |
| 1777782150 | 16.11° C | - | 1115.2 hPa | 0 mm | - | - | - |
| 1777781845 | 16.11° C | - | 1115.2 hPa | 0 mm | - | - | - |
| 1777781539 | 16.11° C | - | 1115.1 hPa | 0 mm | - | - | - |
| 1777781234 | 16.11° C | - | 1115.1 hPa | 0 mm | - | - | - |
* Rain latest hour (hover to see other rain measurements)
** Current wind speed in m/s (hover to see current wind gust speed)